owner,sensor,date,latitude,longitude,relative_humidity,qcFlag 
COMPS,ioos:station:USF.COMPS:C10:1,2018-01-01T22:35:00Z,27.1690,-82.9260,0.76,1111122 
COMPS,ioos:station:USF.COMPS:C10:1,2018-01-01T23:05:00Z,27.1690,-82.9260,20.02,1111122 
COMPS,ioos:station:USF.COMPS:C10:1,2018-01-01T23:35:00Z,27.1690,-82.9260,38.76,1111122 
COMPS,ioos:station:USF.COMPS:C10:1,2018-01-02T00:05:00Z,27.1690,-82.9260,57.9,1111122 
COMPS,ioos:station:USF.COMPS:C10:1,2018-01-02T00:35:00Z,27.1690,-82.9260,56.64,1111122 
COMPS,ioos:station:USF.COMPS:C10:1,2018-01-02T01:05:00Z,27.1690,-82.9260,75.86,1111122 
COMPS,ioos:station:USF.COMPS:C10:1,2018-01-02T01:35:00Z,27.1690,-82.9260,75.54,1111122 
COMPS,ioos:station:USF.COMPS:C10:1,2018-01-02T02:05:00Z,27.1690,-82.9260,75.07,1111122 
COMPS,ioos:station:USF.COMPS:C10:1,2018-01-02T02:35:00Z,27.1690,-82.9260,73.55,1111122 
COMPS,ioos:station:USF.COMPS:C10:1,2018-01-02T03:05:00Z,27.1690,-82.9260,93.13,1111122 
COMPS,ioos:station:USF.COMPS:C10:1,2018-01-02T03:35:00Z,27.1690,-82.9260,93.33,1111122 
COMPS,ioos:station:USF.COMPS:C10:1,2018-01-02T04:05:00Z,27.1690,-82.9260,92.25,1111122 
COMPS,ioos:station:USF.COMPS:C10:1,2018-01-02T04:35:00Z,27.1690,-82.9260,91.32,1111122 
COMPS,ioos:station:USF.COMPS:C10:1,2018-01-02T05:05:00Z,27.1690,-82.9260,89.63,1111122 
COMPS,ioos:station:USF.COMPS:C10:1,2018-01-02T05:35:00Z,27.1690,-82.9260,88.89,1111122 
COMPS,ioos:station:USF.COMPS:C10:1,2018-01-02T06:05:00Z,27.1690,-82.9260,87.86,1111122 
COMPS,ioos:station:USF.COMPS:C10:1,2018-01-02T06:35:00Z,27.1690,-82.9260,88.2,1111122 
COMPS,ioos:station:USF.COMPS:C10:1,2018-01-02T07:05:00Z,27.1690,-82.9260,87.45,1111122 
COMPS,ioos:station:USF.COMPS:C10:1,2018-01-02T07:35:00Z,27.1690,-82.9260,86.9,1111122 
COMPS,ioos:station:USF.COMPS:C10:1,2018-01-02T08:05:00Z,27.1690,-82.9260,86.87,1111122 
COMPS,ioos:station:USF.COMPS:C10:1,2018-01-02T08:35:00Z,27.1690,-82.9260,86.7,1111122 
COMPS,ioos:station:USF.COMPS:C10:1,2018-01-02T09:05:00Z,27.1690,-82.9260,86.59,1111122 
COMPS,ioos:station:USF.COMPS:C10:1,2018-01-02T09:35:00Z,27.1690,-82.9260,85.87,1111122 
COMPS,ioos:station:USF.COMPS:C10:1,2018-01-02T10:05:00Z,27.1690,-82.9260,85.77,1111122 
COMPS,ioos:station:USF.COMPS:C10:1,2018-01-02T10:35:00Z,27.1690,-82.9260,85.19,1111122 
COMPS,ioos:station:USF.COMPS:C10:1,2018-01-02T11:05:00Z,27.1690,-82.9260,84.83,1111122 
COMPS,ioos:station:USF.COMPS:C10:1,2018-01-02T11:35:00Z,27.1690,-82.9260,84.81,1111122 
COMPS,ioos:station:USF.COMPS:C10:1,2018-01-02T12:05:00Z,27.1690,-82.9260,84.89,1111122 
COMPS,ioos:station:USF.COMPS:C10:1,2018-01-02T12:35:00Z,27.1690,-82.9260,84.95,1111122 
COMPS,ioos:station:USF.COMPS:C10:1,2018-01-02T13:05:00Z,27.1690,-82.9260,85.24,1111122 
COMPS,ioos:station:USF.COMPS:C10:1,2018-01-02T13:35:00Z,27.1690,-82.9260,85.93,1111122 
COMPS,ioos:station:USF.COMPS:C10:1,2018-01-02T14:05:00Z,27.1690,-82.9260,87.12,1111122 
COMPS,ioos:station:USF.COMPS:C10:1,2018-01-02T14:35:00Z,27.1690,-82.9260,89.92,1111122 
COMPS,ioos:station:USF.COMPS:C10:1,2018-01-02T15:05:00Z,27.1690,-82.9260,92.89,1111122 
COMPS,ioos:station:USF.COMPS:C10:1,2018-01-02T15:35:00Z,27.1690,-82.9260,74.07,1111122 
COMPS,ioos:station:USF.COMPS:C10:1,2018-01-02T16:05:00Z,27.1690,-82.9260,93.95,1111122 
COMPS,ioos:station:USF.COMPS:C10:1,2018-01-02T16:35:00Z,27.1690,-82.9260,93.42,1111122 
COMPS,ioos:station:USF.COMPS:C10:1,2018-01-02T17:05:00Z,27.1690,-82.9260,94.54,1111122 
COMPS,ioos:station:USF.COMPS:C10:1,2018-01-02T17:35:00Z,27.1690,-82.9260,75.14,1111122 
COMPS,ioos:station:USF.COMPS:C10:1,2018-01-02T18:05:00Z,27.1690,-82.9260,77.39,1111122 
COMPS,ioos:station:USF.COMPS:C10:1,2018-01-02T18:35:00Z,27.1690,-82.9260,39.13,1111122 
COMPS,ioos:station:USF.COMPS:C10:1,2018-01-02T19:05:00Z,27.1690,-82.9260,20.75,1111122 
COMPS,ioos:station:USF.COMPS:C10:1,2018-01-02T23:05:00Z,27.1690,-82.9260,1.4,1111122 
COMPS,ioos:station:USF.COMPS:C10:1,2018-01-02T23:35:00Z,27.1690,-82.9260,0.73,1111122 
COMPS,ioos:station:USF.COMPS:C10:1,2018-01-03T00:05:00Z,27.1690,-82.9260,0.52,1111122 
COMPS,ioos:station:USF.COMPS:C10:1,2018-01-03T00:35:00Z,27.1690,-82.9260,20.57,1111122 
COMPS,ioos:station:USF.COMPS:C10:1,2018-01-03T01:05:00Z,27.1690,-82.9260,20.28,1111122 
COMPS,ioos:station:USF.COMPS:C10:1,2018-01-03T01:35:00Z,27.1690,-82.9260,19.71,1111122 
COMPS,ioos:station:USF.COMPS:C10:1,2018-01-03T02:05:00Z,27.1690,-82.9260,39.53,1111122 
COMPS,ioos:station:USF.COMPS:C10:1,2018-01-03T02:35:00Z,27.1690,-82.9260,38.98,1111122 
COMPS,ioos:station:USF.COMPS:C10:1,2018-01-03T03:05:00Z,27.1690,-82.9260,38.15,1111122 
COMPS,ioos:station:USF.COMPS:C10:1,2018-01-03T03:35:00Z,27.1690,-82.9260,57.61,1111122 
COMPS,ioos:station:USF.COMPS:C10:1,2018-01-03T04:05:00Z,27.1690,-82.9260,57.51,1111122 
COMPS,ioos:station:USF.COMPS:C10:1,2018-01-03T04:35:00Z,27.1690,-82.9260,57.36,1111122 
COMPS,ioos:station:USF.COMPS:C10:1,2018-01-03T05:05:00Z,27.1690,-82.9260,57.21,1111122 
COMPS,ioos:station:USF.COMPS:C10:1,2018-01-03T05:35:00Z,27.1690,-82.9260,57.4,1111122 
COMPS,ioos:station:USF.COMPS:C10:1,2018-01-03T06:05:00Z,27.1690,-82.9260,57.74,1111122 
COMPS,ioos:station:USF.COMPS:C10:1,2018-01-03T06:35:00Z,27.1690,-82.9260,57.39,1111122 
COMPS,ioos:station:USF.COMPS:C10:1,2018-01-03T07:05:00Z,27.1690,-82.9260,58.01,1111122 
COMPS,ioos:station:USF.COMPS:C10:1,2018-01-03T07:35:00Z,27.1690,-82.9260,57.96,1111122 
COMPS,ioos:station:USF.COMPS:C10:1,2018-01-03T08:05:00Z,27.1690,-82.9260,56.72,1111122 
COMPS,ioos:station:USF.COMPS:C10:1,2018-01-03T08:35:00Z,27.1690,-82.9260,76.39,1111122 
COMPS,ioos:station:USF.COMPS:C10:1,2018-01-03T09:05:00Z,27.1690,-82.9260,76.29,1111122 
COMPS,ioos:station:USF.COMPS:C10:1,2018-01-03T09:35:00Z,27.1690,-82.9260,76.06,1111122 
COMPS,ioos:station:USF.COMPS:C10:1,2018-01-03T10:05:00Z,27.1690,-82.9260,76.33,1111122 
COMPS,ioos:station:USF.COMPS:C10:1,2018-01-03T10:35:00Z,27.1690,-82.9260,76.6,1111122 
COMPS,ioos:station:USF.COMPS:C10:1,2018-01-03T11:05:00Z,27.1690,-82.9260,76.45,1111122 
COMPS,ioos:station:USF.COMPS:C10:1,2018-01-03T11:35:00Z,27.1690,-82.9260,76.7,1111122 
COMPS,ioos:station:USF.COMPS:C10:1,2018-01-03T12:05:00Z,27.1690,-82.9260,56.68,1111122 
COMPS,ioos:station:USF.COMPS:C10:1,2018-01-03T12:35:00Z,27.1690,-82.9260,57.43,1111122 
COMPS,ioos:station:USF.COMPS:C10:1,2018-01-03T13:05:00Z,27.1690,-82.9260,58.53,1111122 
COMPS,ioos:station:USF.COMPS:C10:1,2018-01-03T13:35:00Z,27.1690,-82.9260,38.64,1111122 
COMPS,ioos:station:USF.COMPS:C10:1,2018-01-03T14:05:00Z,27.1690,-82.9260,38.9,1111122 
COMPS,ioos:station:USF.COMPS:C10:1,2018-01-03T14:35:00Z,27.1690,-82.9260,39.22,1111122 
COMPS,ioos:station:USF.COMPS:C10:1,2018-01-03T15:05:00Z,27.1690,-82.9260,19.94,1111122 
COMPS,ioos:station:USF.COMPS:C10:1,2018-01-03T15:35:00Z,27.1690,-82.9260,0.76,1111122 
COMPS,ioos:station:USF.COMPS:C10:1,2018-01-03T16:05:00Z,27.1690,-82.9260,20.27,1111122 
COMPS,ioos:station:USF.COMPS:C10:1,2018-01-03T16:35:00Z,27.1690,-82.9260,20.1,1111122 
COMPS,ioos:station:USF.COMPS:C10:1,2018-01-03T17:05:00Z,27.1690,-82.9260,1.37,1111122 
COMPS,ioos:station:USF.COMPS:C10:1,2018-01-03T22:35:00Z,27.1690,-82.9260,1.47,1111122 
COMPS,ioos:station:USF.COMPS:C10:1,2018-01-03T23:05:00Z,27.1690,-82.9260,1.21,1111122 
COMPS,ioos:station:USF.COMPS:C10:1,2018-01-03T23:35:00Z,27.1690,-82.9260,1.37,1111122 
COMPS,ioos:station:USF.COMPS:C10:1,2018-01-04T01:05:00Z,27.1690,-82.9260,1.21,1111122 
COMPS,ioos:station:USF.COMPS:C10:1,2018-01-04T01:35:00Z,27.1690,-82.9260,0.96,1111122 
COMPS,ioos:station:USF.COMPS:C10:1,2018-01-04T02:05:00Z,27.1690,-82.9260,20.63,1111122 
COMPS,ioos:station:USF.COMPS:C10:1,2018-01-04T02:35:00Z,27.1690,-82.9260,20.48,1111122 
COMPS,ioos:station:USF.COMPS:C10:1,2018-01-04T03:05:00Z,27.1690,-82.9260,20.24,1111122 
COMPS,ioos:station:USF.COMPS:C10:1,2018-01-04T03:35:00Z,27.1690,-82.9260,19.5,1111122 
COMPS,ioos:station:USF.COMPS:C10:1,2018-01-04T04:05:00Z,27.1690,-82.9260,37.84,1111122 
COMPS,ioos:station:USF.COMPS:C10:1,2018-01-04T04:35:00Z,27.1690,-82.9260,56.54,1111122 
COMPS,ioos:station:USF.COMPS:C10:1,2018-01-04T05:05:00Z,27.1690,-82.9260,75.44,1111122 
COMPS,ioos:station:USF.COMPS:C10:1,2018-01-04T05:35:00Z,27.1690,-82.9260,74.56,1111122 
COMPS,ioos:station:USF.COMPS:C10:1,2018-01-04T06:05:00Z,27.1690,-82.9260,74.32,1111122 
COMPS,ioos:station:USF.COMPS:C10:1,2018-01-04T06:35:00Z,27.1690,-82.9260,74.35,1111122 
COMPS,ioos:station:USF.COMPS:C10:1,2018-01-04T07:05:00Z,27.1690,-82.9260,73.59,1111122 
COMPS,ioos:station:USF.COMPS:C10:1,2018-01-04T07:35:00Z,27.1690,-82.9260,93.51,1111122 
COMPS,ioos:station:USF.COMPS:C10:1,2018-01-04T08:05:00Z,27.1690,-82.9260,92.87,1111122 
COMPS,ioos:station:USF.COMPS:C10:1,2018-01-04T08:35:00Z,27.1690,-82.9260,92.25,1111122 
COMPS,ioos:station:USF.COMPS:C10:1,2018-01-04T09:05:00Z,27.1690,-82.9260,92.7,1111122 
COMPS,ioos:station:USF.COMPS:C10:1,2018-01-04T09:35:00Z,27.1690,-82.9260,92.6,1111122 
COMPS,ioos:station:USF.COMPS:C10:1,2018-01-04T10:05:00Z,27.1690,-82.9260,93.81,1111122 
COMPS,ioos:station:USF.COMPS:C10:1,2018-01-04T10:35:00Z,27.1690,-82.9260,57.41,1111122 
COMPS,ioos:station:USF.COMPS:C10:1,2018-01-04T11:05:00Z,27.1690,-82.9260,38.72,1111122 
COMPS,ioos:station:USF.COMPS:C10:1,2018-01-04T11:35:00Z,27.1690,-82.9260,39.38,1111122 
COMPS,ioos:station:USF.COMPS:C10:1,2018-01-04T12:05:00Z,27.1690,-82.9260,39.67,1111122 
COMPS,ioos:station:USF.COMPS:C10:1,2018-01-04T12:35:00Z,27.1690,-82.9260,40.04,1111122 
COMPS,ioos:station:USF.COMPS:C10:1,2018-01-04T13:05:00Z,27.1690,-82.9260,20.24,1111122 
COMPS,ioos:station:USF.COMPS:C10:1,2018-01-04T13:35:00Z,27.1690,-82.9260,20.63,1111122 
COMPS,ioos:station:USF.COMPS:C10:1,2018-01-04T14:05:00Z,27.1690,-82.9260,0.94,1111122 
COMPS,ioos:station:USF.COMPS:C10:1,2018-01-05T10:05:00Z,27.1690,-82.9260,0.3,1111122 
COMPS,ioos:station:USF.COMPS:C10:1,2018-01-05T10:35:00Z,27.1690,-82.9260,19.11,1111122 
COMPS,ioos:station:USF.COMPS:C10:1,2018-01-05T11:05:00Z,27.1690,-82.9260,37.66,1111122 
COMPS,ioos:station:USF.COMPS:C10:1,2018-01-05T11:35:00Z,27.1690,-82.9260,56.4,1111122 
COMPS,ioos:station:USF.COMPS:C10:1,2018-01-05T12:05:00Z,27.1690,-82.9260,75.33,1111122 
COMPS,ioos:station:USF.COMPS:C10:1,2018-01-05T12:35:00Z,27.1690,-82.9260,73.89,1111122 
COMPS,ioos:station:USF.COMPS:C10:1,2018-01-05T13:05:00Z,27.1690,-82.9260,75.1,1111122 
COMPS,ioos:station:USF.COMPS:C10:1,2018-01-05T13:35:00Z,27.1690,-82.9260,38.31,1111122 
COMPS,ioos:station:USF.COMPS:C10:1,2018-01-05T14:05:00Z,27.1690,-82.9260,0.26,1111122 
COMPS,ioos:station:USF.COMPS:C10:1,2018-01-05T15:35:00Z,27.1690,-82.9260,1.04,1111122 
COMPS,ioos:station:USF.COMPS:C10:1,2018-01-05T16:05:00Z,27.1690,-82.9260,0.66,1111122 
COMPS,ioos:station:USF.COMPS:C10:1,2018-01-13T22:35:00Z,27.1690,-82.9260,1.13,1111122 
COMPS,ioos:station:USF.COMPS:C10:1,2018-01-13T23:05:00Z,27.1690,-82.9260,0.84,1111122 
COMPS,ioos:station:USF.COMPS:C10:1,2018-01-13T23:35:00Z,27.1690,-82.9260,20.65,1111122 
COMPS,ioos:station:USF.COMPS:C10:1,2018-01-14T00:05:00Z,27.1690,-82.9260,39.9,1111122 
COMPS,ioos:station:USF.COMPS:C10:1,2018-01-14T00:35:00Z,27.1690,-82.9260,38.83,1111122 
COMPS,ioos:station:USF.COMPS:C10:1,2018-01-14T01:05:00Z,27.1690,-82.9260,38.66,1111122 
COMPS,ioos:station:USF.COMPS:C10:1,2018-01-14T01:35:00Z,27.1690,-82.9260,57.98,1111122 
COMPS,ioos:station:USF.COMPS:C10:1,2018-01-14T02:05:00Z,27.1690,-82.9260,56.69,1111122 
COMPS,ioos:station:USF.COMPS:C10:1,2018-01-14T02:35:00Z,27.1690,-82.9260,56.53,1111122 
COMPS,ioos:station:USF.COMPS:C10:1,2018-01-14T03:05:00Z,27.1690,-82.9260,56.8,1111122 
COMPS,ioos:station:USF.COMPS:C10:1,2018-01-14T03:35:00Z,27.1690,-82.9260,56.72,1111122 
COMPS,ioos:station:USF.COMPS:C10:1,2018-01-14T04:05:00Z,27.1690,-82.9260,56.75,1111122 
COMPS,ioos:station:USF.COMPS:C10:1,2018-01-14T04:35:00Z,27.1690,-82.9260,56.37,1111122 
COMPS,ioos:station:USF.COMPS:C10:1,2018-01-14T05:05:00Z,27.1690,-82.9260,75.85,1111122 
COMPS,ioos:station:USF.COMPS:C10:1,2018-01-14T05:35:00Z,27.1690,-82.9260,75.66,1111122 
COMPS,ioos:station:USF.COMPS:C10:1,2018-01-14T06:05:00Z,27.1690,-82.9260,74.96,1111122 
COMPS,ioos:station:USF.COMPS:C10:1,2018-01-14T06:35:00Z,27.1690,-82.9260,74.58,1111122 
COMPS,ioos:station:USF.COMPS:C10:1,2018-01-14T07:05:00Z,27.1690,-82.9260,73.62,1111122 
COMPS,ioos:station:USF.COMPS:C10:1,2018-01-14T07:35:00Z,27.1690,-82.9260,91.3,1111122 
COMPS,ioos:station:USF.COMPS:C10:1,2018-01-14T08:05:00Z,27.1690,-82.9260,88.52,1111122 
COMPS,ioos:station:USF.COMPS:C10:1,2018-01-14T08:35:00Z,27.1690,-82.9260,86.24,1111122 
COMPS,ioos:station:USF.COMPS:C10:1,2018-01-14T09:05:00Z,27.1690,-82.9260,85.22,1111122 
COMPS,ioos:station:USF.COMPS:C10:1,2018-01-14T09:35:00Z,27.1690,-82.9260,84.87,1111122 
COMPS,ioos:station:USF.COMPS:C10:1,2018-01-14T10:05:00Z,27.1690,-82.9260,84.69,1111122 
COMPS,ioos:station:USF.COMPS:C10:1,2018-01-14T10:35:00Z,27.1690,-82.9260,84.16,1111122 
COMPS,ioos:station:USF.COMPS:C10:1,2018-01-14T11:05:00Z,27.1690,-82.9260,84.1,1111122 
COMPS,ioos:station:USF.COMPS:C10:1,2018-01-14T11:35:00Z,27.1690,-82.9260,84.17,1111122 
COMPS,ioos:station:USF.COMPS:C10:1,2018-01-14T12:05:00Z,27.1690,-82.9260,83.61,1111122 
COMPS,ioos:station:USF.COMPS:C10:1,2018-01-14T12:35:00Z,27.1690,-82.9260,83.06,1111122 
COMPS,ioos:station:USF.COMPS:C10:1,2018-01-14T13:05:00Z,27.1690,-82.9260,85.35,1111122 
COMPS,ioos:station:USF.COMPS:C10:1,2018-01-14T13:35:00Z,27.1690,-82.9260,90.06,1111122 
COMPS,ioos:station:USF.COMPS:C10:1,2018-01-14T14:05:00Z,27.1690,-82.9260,95.0,1111122 
COMPS,ioos:station:USF.COMPS:C10:1,2018-01-14T14:35:00Z,27.1690,-82.9260,76.87,1111122 
COMPS,ioos:station:USF.COMPS:C10:1,2018-01-14T15:05:00Z,27.1690,-82.9260,57.84,1111122 
COMPS,ioos:station:USF.COMPS:C10:1,2018-01-14T15:35:00Z,27.1690,-82.9260,38.29,1111122 
COMPS,ioos:station:USF.COMPS:C10:1,2018-01-14T16:05:00Z,27.1690,-82.9260,37.86,1111122 
COMPS,ioos:station:USF.COMPS:C10:1,2018-01-14T16:35:00Z,27.1690,-82.9260,57.76,1111122 
COMPS,ioos:station:USF.COMPS:C10:1,2018-01-14T17:05:00Z,27.1690,-82.9260,58.34,1111122 
COMPS,ioos:station:USF.COMPS:C10:1,2018-01-14T17:35:00Z,27.1690,-82.9260,39.35,1111122 
COMPS,ioos:station:USF.COMPS:C10:1,2018-01-14T18:05:00Z,27.1690,-82.9260,0.41,1111122 
COMPS,ioos:station:USF.COMPS:C10:1,2018-01-14T18:35:00Z,27.1690,-82.9260,1.41,1111122 
COMPS,ioos:station:USF.COMPS:C10:1,2018-01-14T23:35:00Z,27.1690,-82.9260,1.33,1111122 
COMPS,ioos:station:USF.COMPS:C10:1,2018-01-15T00:05:00Z,27.1690,-82.9260,1.36,1111122 
COMPS,ioos:station:USF.COMPS:C10:1,2018-01-15T04:35:00Z,27.1690,-82.9260,0.92,1111122 
COMPS,ioos:station:USF.COMPS:C10:1,2018-01-15T05:05:00Z,27.1690,-82.9260,0.37,1111122 
COMPS,ioos:station:USF.COMPS:C10:1,2018-01-15T05:35:00Z,27.1690,-82.9260,20.22,1111122 
COMPS,ioos:station:USF.COMPS:C10:1,2018-01-15T06:05:00Z,27.1690,-82.9260,19.72,1111122 
COMPS,ioos:station:USF.COMPS:C10:1,2018-01-15T06:35:00Z,27.1690,-82.9260,19.49,1111122 
COMPS,ioos:station:USF.COMPS:C10:1,2018-01-15T07:05:00Z,27.1690,-82.9260,39.45,1111122 
COMPS,ioos:station:USF.COMPS:C10:1,2018-01-15T07:35:00Z,27.1690,-82.9260,38.95,1111122 
COMPS,ioos:station:USF.COMPS:C10:1,2018-01-15T08:05:00Z,27.1690,-82.9260,38.38,1111122 
COMPS,ioos:station:USF.COMPS:C10:1,2018-01-15T08:35:00Z,27.1690,-82.9260,57.82,1111122 
COMPS,ioos:station:USF.COMPS:C10:1,2018-01-15T09:05:00Z,27.1690,-82.9260,56.46,1111122 
COMPS,ioos:station:USF.COMPS:C10:1,2018-01-15T09:35:00Z,27.1690,-82.9260,75.81,1111122 
COMPS,ioos:station:USF.COMPS:C10:1,2018-01-15T10:05:00Z,27.1690,-82.9260,75.28,1111122 
COMPS,ioos:station:USF.COMPS:C10:1,2018-01-15T10:35:00Z,27.1690,-82.9260,74.88,1111122 
COMPS,ioos:station:USF.COMPS:C10:1,2018-01-15T11:05:00Z,27.1690,-82.9260,75.17,1111122 
COMPS,ioos:station:USF.COMPS:C10:1,2018-01-15T11:35:00Z,27.1690,-82.9260,75.86,1111122 
COMPS,ioos:station:USF.COMPS:C10:1,2018-01-15T12:05:00Z,27.1690,-82.9260,76.21,1111122 
COMPS,ioos:station:USF.COMPS:C10:1,2018-01-15T12:35:00Z,27.1690,-82.9260,76.52,1111122 
COMPS,ioos:station:USF.COMPS:C10:1,2018-01-15T13:05:00Z,27.1690,-82.9260,57.61,1111122 
COMPS,ioos:station:USF.COMPS:C10:1,2018-01-15T13:35:00Z,27.1690,-82.9260,40.14,1111122 
COMPS,ioos:station:USF.COMPS:C10:1,2018-01-16T09:35:00Z,27.1690,-82.9260,1.27,1111122 
COMPS,ioos:station:USF.COMPS:C10:1,2018-01-16T10:05:00Z,27.1690,-82.9260,1.04,1111122 
COMPS,ioos:station:USF.COMPS:C10:1,2018-01-16T10:35:00Z,27.1690,-82.9260,1.1,1111122 
COMPS,ioos:station:USF.COMPS:C10:1,2018-01-16T11:05:00Z,27.1690,-82.9260,1.25,1111122 
COMPS,ioos:station:USF.COMPS:C10:1,2018-01-16T11:35:00Z,27.1690,-82.9260,1.4,1111122 
COMPS,ioos:station:USF.COMPS:C10:1,2018-01-16T12:35:00Z,27.1690,-82.9260,1.3,1111122 
COMPS,ioos:station:USF.COMPS:C10:1,2018-01-17T23:05:00Z,27.1690,-82.9260,0.9,1111122 
COMPS,ioos:station:USF.COMPS:C10:1,2018-01-17T23:35:00Z,27.1690,-82.9260,0.59,1111122 
COMPS,ioos:station:USF.COMPS:C10:1,2018-01-18T00:05:00Z,27.1690,-82.9260,20.34,1111122 
COMPS,ioos:station:USF.COMPS:C10:1,2018-01-18T00:35:00Z,27.1690,-82.9260,19.36,1111122 
COMPS,ioos:station:USF.COMPS:C10:1,2018-01-18T01:05:00Z,27.1690,-82.9260,38.98,1111122 
COMPS,ioos:station:USF.COMPS:C10:1,2018-01-18T01:35:00Z,27.1690,-82.9260,38.49,1111122 
COMPS,ioos:station:USF.COMPS:C10:1,2018-01-18T02:05:00Z,27.1690,-82.9260,58.1,1111122 
COMPS,ioos:station:USF.COMPS:C10:1,2018-01-18T02:35:00Z,27.1690,-82.9260,57.21,1111122 
COMPS,ioos:station:USF.COMPS:C10:1,2018-01-18T03:05:00Z,27.1690,-82.9260,56.34,1111122 
COMPS,ioos:station:USF.COMPS:C10:1,2018-01-18T03:35:00Z,27.1690,-82.9260,76.31,1111122 
COMPS,ioos:station:USF.COMPS:C10:1,2018-01-18T04:05:00Z,27.1690,-82.9260,76.24,1111122 
COMPS,ioos:station:USF.COMPS:C10:1,2018-01-18T04:35:00Z,27.1690,-82.9260,75.47,1111122 
COMPS,ioos:station:USF.COMPS:C10:1,2018-01-18T05:05:00Z,27.1690,-82.9260,74.15,1111122 
COMPS,ioos:station:USF.COMPS:C10:1,2018-01-18T05:35:00Z,27.1690,-82.9260,92.91,1111122 
COMPS,ioos:station:USF.COMPS:C10:1,2018-01-18T06:05:00Z,27.1690,-82.9260,91.11,1111122 
COMPS,ioos:station:USF.COMPS:C10:1,2018-01-18T06:35:00Z,27.1690,-82.9260,89.69,1111122 
COMPS,ioos:station:USF.COMPS:C10:1,2018-01-18T07:05:00Z,27.1690,-82.9260,88.59,1111122 
COMPS,ioos:station:USF.COMPS:C10:1,2018-01-18T07:35:00Z,27.1690,-82.9260,86.87,1111122 
COMPS,ioos:station:USF.COMPS:C10:1,2018-01-18T08:05:00Z,27.1690,-82.9260,85.2,1111122 
COMPS,ioos:station:USF.COMPS:C10:1,2018-01-18T08:35:00Z,27.1690,-82.9260,83.46,1111122 
COMPS,ioos:station:USF.COMPS:C10:1,2018-01-18T09:05:00Z,27.1690,-82.9260,81.65,1111122 
COMPS,ioos:station:USF.COMPS:C10:1,2018-01-18T09:35:00Z,27.1690,-82.9260,79.6,1111122 
COMPS,ioos:station:USF.COMPS:C10:1,2018-01-18T10:05:00Z,27.1690,-82.9260,77.16,1111122 
COMPS,ioos:station:USF.COMPS:C10:1,2018-01-18T10:35:00Z,27.1690,-82.9260,75.37,1111122 
COMPS,ioos:station:USF.COMPS:C10:1,2018-01-18T11:05:00Z,27.1690,-82.9260,73.22,1111122 
COMPS,ioos:station:USF.COMPS:C10:1,2018-01-18T11:35:00Z,27.1690,-82.9260,70.63,1111122 
COMPS,ioos:station:USF.COMPS:C10:1,2018-01-18T12:05:00Z,27.1690,-82.9260,68.55,1111122 
COMPS,ioos:station:USF.COMPS:C10:1,2018-01-18T12:35:00Z,27.1690,-82.9260,66.98,1111122 
COMPS,ioos:station:USF.COMPS:C10:1,2018-01-18T13:05:00Z,27.1690,-82.9260,68.27,1111122 
COMPS,ioos:station:USF.COMPS:C10:1,2018-01-18T13:35:00Z,27.1690,-82.9260,72.01,1111122 
COMPS,ioos:station:USF.COMPS:C10:1,2018-01-18T14:05:00Z,27.1690,-82.9260,75.0,1111122 
COMPS,ioos:station:USF.COMPS:C10:1,2018-01-18T14:35:00Z,27.1690,-82.9260,77.59,1111122 
COMPS,ioos:station:USF.COMPS:C10:1,2018-01-18T15:05:00Z,27.1690,-82.9260,79.13,1111122 
COMPS,ioos:station:USF.COMPS:C10:1,2018-01-18T15:35:00Z,27.1690,-82.9260,81.05,1111122 
COMPS,ioos:station:USF.COMPS:C10:1,2018-01-18T16:05:00Z,27.1690,-82.9260,82.01,1111122 
COMPS,ioos:station:USF.COMPS:C10:1,2018-01-18T16:35:00Z,27.1690,-82.9260,81.87,1111122 
COMPS,ioos:station:USF.COMPS:C10:1,2018-01-18T17:05:00Z,27.1690,-82.9260,81.7,1111122 
COMPS,ioos:station:USF.COMPS:C10:1,2018-01-18T17:35:00Z,27.1690,-82.9260,82.13,1111122 
COMPS,ioos:station:USF.COMPS:C10:1,2018-01-18T18:05:00Z,27.1690,-82.9260,84.11,1111122 
COMPS,ioos:station:USF.COMPS:C10:1,2018-01-18T18:35:00Z,27.1690,-82.9260,87.65,1111122 
COMPS,ioos:station:USF.COMPS:C10:1,2018-01-18T19:05:00Z,27.1690,-82.9260,92.8,1111122 
COMPS,ioos:station:USF.COMPS:C10:1,2018-01-18T19:35:00Z,27.1690,-82.9260,76.5,1111122 
COMPS,ioos:station:USF.COMPS:C10:1,2018-01-18T20:05:00Z,27.1690,-82.9260,39.64,1111122 
COMPS,ioos:station:USF.COMPS:C10:1,2018-01-18T20:35:00Z,27.1690,-82.9260,1.16,1111122 
COMPS,ioos:station:USF.COMPS:C10:1,2018-01-18T22:35:00Z,27.1690,-82.9260,19.97,1111122 
COMPS,ioos:station:USF.COMPS:C10:1,2018-01-18T23:05:00Z,27.1690,-82.9260,57.52,1111122 
COMPS,ioos:station:USF.COMPS:C10:1,2018-01-18T23:35:00Z,27.1690,-82.9260,75.31,1111122 
COMPS,ioos:station:USF.COMPS:C10:1,2018-01-19T00:05:00Z,27.1690,-82.9260,74.78,1111122 
COMPS,ioos:station:USF.COMPS:C10:1,2018-01-19T00:35:00Z,27.1690,-82.9260,75.32,1111122 
COMPS,ioos:station:USF.COMPS:C10:1,2018-01-19T01:05:00Z,27.1690,-82.9260,76.29,1111122 
COMPS,ioos:station:USF.COMPS:C10:1,2018-01-19T01:35:00Z,27.1690,-82.9260,56.81,1111122 
COMPS,ioos:station:USF.COMPS:C10:1,2018-01-19T02:05:00Z,27.1690,-82.9260,57.36,1111122 
COMPS,ioos:station:USF.COMPS:C10:1,2018-01-19T02:35:00Z,27.1690,-82.9260,57.86,1111122 
COMPS,ioos:station:USF.COMPS:C10:1,2018-01-19T03:05:00Z,27.1690,-82.9260,37.83,1111122 
COMPS,ioos:station:USF.COMPS:C10:1,2018-01-19T03:35:00Z,27.1690,-82.9260,37.72,1111122 
COMPS,ioos:station:USF.COMPS:C10:1,2018-01-19T04:05:00Z,27.1690,-82.9260,57.96,1111122 
COMPS,ioos:station:USF.COMPS:C10:1,2018-01-19T04:35:00Z,27.1690,-82.9260,37.71,1111122 
COMPS,ioos:station:USF.COMPS:C10:1,2018-01-19T05:05:00Z,27.1690,-82.9260,58.06,1111122 
COMPS,ioos:station:USF.COMPS:C10:1,2018-01-19T05:35:00Z,27.1690,-82.9260,38.26,1111122 
COMPS,ioos:station:USF.COMPS:C10:1,2018-01-19T06:05:00Z,27.1690,-82.9260,38.96,1111122 
COMPS,ioos:station:USF.COMPS:C10:1,2018-01-19T06:35:00Z,27.1690,-82.9260,19.49,1111122 
COMPS,ioos:station:USF.COMPS:C10:1,2018-01-19T07:05:00Z,27.1690,-82.9260,19.34,1111122 
COMPS,ioos:station:USF.COMPS:C10:1,2018-01-19T07:35:00Z,27.1690,-82.9260,19.78,1111122 
COMPS,ioos:station:USF.COMPS:C10:1,2018-01-19T08:35:00Z,27.1690,-82.9260,0.04,1111122 
COMPS,ioos:station:USF.COMPS:C10:1,2018-01-19T09:35:00Z,27.1690,-82.9260,19.14,1111122 
COMPS,ioos:station:USF.COMPS:C10:1,2018-01-19T10:05:00Z,27.1690,-82.9260,19.27,1111122 
COMPS,ioos:station:USF.COMPS:C10:1,2018-01-19T10:35:00Z,27.1690,-82.9260,19.53,1111122 
COMPS,ioos:station:USF.COMPS:C10:1,2018-01-19T11:05:00Z,27.1690,-82.9260,19.9,1111122 
COMPS,ioos:station:USF.COMPS:C10:1,2018-01-19T11:35:00Z,27.1690,-82.9260,0.43,1111122 
COMPS,ioos:station:USF.COMPS:C10:1,2018-01-19T12:05:00Z,27.1690,-82.9260,0.98,1111122 
COMPS,ioos:station:USF.COMPS:C10:1,2018-01-19T12:35:00Z,27.1690,-82.9260,1.01,1111122 
COMPS,ioos:station:USF.COMPS:C10:1,2018-01-24T04:35:00Z,27.1690,-82.9260,1.72,1111122 
COMPS,ioos:station:USF.COMPS:C10:1,2018-01-24T05:05:00Z,27.1690,-82.9260,1.81,1111122 
COMPS,ioos:station:USF.COMPS:C10:1,2018-01-24T06:05:00Z,27.1690,-82.9260,1.85,1111122 
COMPS,ioos:station:USF.COMPS:C10:1,2018-01-24T06:35:00Z,27.1690,-82.9260,1.77,1111122 
COMPS,ioos:station:USF.COMPS:C10:1,2018-01-24T09:05:00Z,27.1690,-82.9260,1.67,1111122 
COMPS,ioos:station:USF.COMPS:C10:1,2018-01-24T09:35:00Z,27.1690,-82.9260,1.37,1111122 
COMPS,ioos:station:USF.COMPS:C10:1,2018-01-24T10:05:00Z,27.1690,-82.9260,21.26,1111122 
COMPS,ioos:station:USF.COMPS:C10:1,2018-01-24T10:35:00Z,27.1690,-82.9260,21.24,1111122 
COMPS,ioos:station:USF.COMPS:C10:1,2018-01-24T11:05:00Z,27.1690,-82.9260,1.01,1111122 
COMPS,ioos:station:USF.COMPS:C10:1,2018-01-24T11:35:00Z,27.1690,-82.9260,1.43,1111122 
COMPS,ioos:station:USF.COMPS:C10:1,2018-01-24T12:05:00Z,27.1690,-82.9260,0.98,1111122 
COMPS,ioos:station:USF.COMPS:C10:1,2018-01-24T12:35:00Z,27.1690,-82.9260,0.82,1111122 
COMPS,ioos:station:USF.COMPS:C10:1,2018-01-24T13:05:00Z,27.1690,-82.9260,1.74,1111122 